| time (UTC) | temp F | wind direction | speed MPH | gust MPH | rain 1hr in | rain 24hr in | rain mn in | humidity % | barometer mb |
| 20260502210101 | 68 | 125 | 2.0 | 7.0 | 0.00 | 0.00 | 0.00 | 32 | 1019.5 |
| 20260502205101 | 69 | 49 | 3.0 | 8.0 | 0.00 | 0.00 | 0.00 | 34 | 1019.6 |
| 20260502204601 | 69 | 144 | 3.0 | 8.0 | 0.00 | 0.00 | 0.00 | 33 | 1019.6 |
| 20260502203601 | 69 | 109 | 3.0 | 6.0 | 0.00 | 0.00 | 0.00 | 36 | 1019.7 |
| 20260502203101 | 69 | 20 | 2.0 | 7.0 | 0.00 | 0.00 | 0.00 | 31 | 1019.8 |
| 20260502202601 | 70 | 54 | 2.0 | 7.0 | 0.00 | 0.00 | 0.00 | 32 | 1019.8 |
| 20260502202103 | 70 | 46 | 2.0 | 6.0 | 0.00 | 0.00 | 0.00 | 38 | 1019.8 |
| 20260502201602 | 70 | 115 | 2.0 | 8.0 | 0.00 | 0.00 | 0.00 | 34 | 1019.8 |
| 20260502201101 | 70 | 140 | 2.0 | 8.0 | 0.00 | 0.00 | 0.00 | 35 | 1019.8 |
| 20260502200601 | 70 | 122 | 2.0 | 8.0 | 0.00 | 0.00 | 0.00 | 40 | 1019.9 |
| 20260502195552 | 70 | 59 | 3.0 | 9.0 | 0.00 | 0.00 | 0.00 | 40 | 1019.9 |
| 20260502195048 | 70 | 104 | 3.0 | 9.0 | 0.00 | 0.00 | 0.00 | 35 | 1019.9 |
| 20260502194547 | 70 | 107 | 2.0 | 5.0 | 0.00 | 0.00 | 0.00 | 39 | 1019.9 |
| 20260502194047 | 69 | 142 | 2.0 | 7.0 | 0.00 | 0.00 | 0.00 | 39 | 1019.9 |
| 20260502193548 | 69 | 40 | 2.0 | 7.0 | 0.00 | 0.00 | 0.00 | 42 | 1019.9 |
| 20260502193048 | 69 | 125 | 2.0 | 8.0 | 0.00 | 0.00 | 0.00 | 36 | 1019.9 |
| 20260502192547 | 69 | 25 | 2.0 | 8.0 | 0.00 | 0.00 | 0.00 | 35 | 1019.9 |
| 20260502192048 | 70 | 60 | 2.0 | 4.0 | 0.00 | 0.00 | 0.00 | 43 | 1019.9 |
| 20260502190034 | 69 | 63 | 2.0 | 11.0 | 0.00 | 0.00 | 0.00 | 35 | 1020.0 |
| 20260502185533 | 69 | 93 | 2.0 | 11.0 | 0.00 | 0.00 | 0.00 | 36 | 1020.1 |
| 20260502185034 | 69 | 44 | 2.0 | 7.0 | 0.00 | 0.00 | 0.00 | 37 | 1020.0 |
| 20260502184535 | 69 | 63 | 2.0 | 7.0 | 0.00 | 0.00 | 0.00 | 35 | 1020.1 |
| 20260502184034 | 69 | 54 | 1.0 | 5.0 | 0.00 | 0.00 | 0.00 | 37 | 1020.2 |
| 20260502183534 | 69 | 47 | 2.0 | 8.0 | 0.00 | 0.00 | 0.00 | 38 | 1020.3 |
| 20260502183034 | 68 | 52 | 2.0 | 8.0 | 0.00 | 0.00 | 0.00 | 39 | 1020.2 |
| 20260502182532 | 68 | 65 | 2.0 | 7.0 | 0.00 | 0.00 | 0.00 | 42 | 1020.4 |
| 20260502182032 | 68 | 70 | 3.0 | 8.0 | 0.00 | 0.00 | 0.00 | 41 | 1020.4 |
| 20260502181532 | 68 | 55 | 3.0 | 8.0 | 0.00 | 0.00 | 0.00 | 36 | 1020.4 |
| 20260502181032 | 68 | 59 | 2.0 | 6.0 | 0.00 | 0.00 | 0.00 | 39 | 1020.4 |
| 20260502180531 | 68 | 105 | 2.0 | 4.0 | 0.00 | 0.00 | 0.00 | 37 | 1020.4 |
| 20260502164030 | 66 | 151 | 2.0 | 7.0 | 0.00 | 0.00 | 0.00 | 44 | 1021.1 |
| 20260502163529 | 65 | 136 | 2.0 | 7.0 | 0.00 | 0.00 | 0.00 | 42 | 1021.1 |
| 20260502163029 | 65 | 27 | 2.0 | 6.0 | 0.00 | 0.00 | 0.00 | 36 | 1021.1 |
| 20260502162529 | 65 | 5 | 2.0 | 4.0 | 0.00 | 0.00 | 0.00 | 44 | 1020.9 |
| 20260502161030 | 65 | 50 | 1.0 | 5.0 | 0.00 | 0.00 | 0.00 | 44 | 1021.0 |
| 20260502160531 | 65 | 29 | 2.0 | 6.0 | 0.00 | 0.00 | 0.00 | 45 | 1021.0 |
| 20260502152029 | 62 | 66 | 2.0 | 7.0 | 0.00 | 0.00 | 0.00 | 43 | 1021.0 |
| 20260502151528 | 61 | 123 | 2.0 | 7.0 | 0.00 | 0.00 | 0.00 | 50 | 1021.1 |
| 20260502151031 | 61 | 56 | 2.0 | 5.0 | 0.00 | 0.00 | 0.00 | 42 | 1021.0 |
| 20260502150523 | 60 | 145 | 2.0 | 5.0 | 0.00 | 0.00 | 0.00 | 48 | 1021.1 |
| 20260502123505 | 43 | 180 | 0.0 | 1.0 | 0.00 | 0.00 | 0.00 | 94 | 1020.0 |
| 20260502123005 | 42 | 180 | 0.0 | 1.0 | 0.00 | 0.00 | 0.00 | 94 | 1020.0 |
| 20260502122002 | 42 | 180 | 0.0 | 0.0 | 0.00 | 0.00 | 0.00 | 93 | 1019.9 |
| 20260502121501 | 42 | 180 | 0.0 | 0.0 | 0.00 | 0.00 | 0.00 | 93 | 1019.8 |
| 20260502121001 | 42 | 180 | 0.0 | 0.0 | 0.00 | 0.00 | 0.00 | 93 | 1019.8 |
| 20260502120501 | 42 | 180 | 0.0 | 0.0 | 0.00 | 0.00 | 0.00 | 93 | 1019.8 |
| 20260502115001 | 42 | 180 | 0.0 | 0.0 | 0.00 | 0.00 | 0.00 | 93 | 1019.7 |
| 20260502114501 | 42 | 180 | 0.0 | 0.0 | 0.00 | 0.00 | 0.00 | 93 | 1019.6 |
| 20260502114001 | 42 | 180 | 0.0 | 0.0 | 0.00 | 0.00 | 0.00 | 93 | 1019.4 |
| 20260502113502 | 42 | 180 | 0.0 | 0.0 | 0.00 | 0.00 | 0.00 | 93 | 1019.4 |
| 20260502113002 | 42 | 180 | 0.0 | 1.0 | 0.00 | 0.00 | 0.00 | 93 | 1019.3 |
| 20260502112504 | 42 | 180 | 0.0 | 1.0 | 0.00 | 0.00 | 0.00 | 93 | 1019.3 |
| 20260502112001 | 42 | 180 | 0.0 | 1.0 | 0.00 | 0.00 | 0.00 | 93 | 1019.2 |
| 20260502111502 | 42 | 180 | 0.0 | 0.0 | 0.00 | 0.00 | 0.00 | 93 | 1019.2 |
| 20260502111001 | 42 | 180 | 0.0 | 0.0 | 0.00 | 0.00 | 0.00 | 93 | 1019.0 |
| 20260502110501 | 42 | 180 | 0.0 | 0.0 | 0.00 | 0.00 | 0.00 | 93 | 1019.0 |
| 20260502110000 | 42 | 180 | 0.0 | 0.0 | 0.00 | 0.00 | 0.00 | 93 | 1019.0 |
| 20260502105500 | 42 | 180 | 0.0 | 0.0 | 0.00 | 0.00 | 0.00 | 93 | 1018.9 |
| 20260502104957 | 42 | 180 | 0.0 | 1.0 | 0.00 | 0.00 | 0.00 | 93 | 1018.9 |
| 20260502104457 | 42 | 180 | 0.0 | 1.0 | 0.00 | 0.00 | 0.00 | 93 | 1018.8 |
| 20260502103956 | 42 | 180 | 0.0 | 1.0 | 0.00 | 0.00 | 0.00 | 93 | 1018.8 |
| 20260502103456 | 42 | 180 | 0.0 | 1.0 | 0.00 | 0.00 | 0.00 | 92 | 1018.8 |
| 20260502102954 | 41 | 180 | 0.0 | 1.0 | 0.00 | 0.00 | 0.00 | 92 | 1018.8 |
| 20260502102453 | 41 | 180 | 0.0 | 1.0 | 0.00 | 0.00 | 0.00 | 92 | 1018.7 |
| 20260502101951 | 41 | 180 | 0.0 | 0.0 | 0.00 | 0.00 | 0.00 | 92 | 1018.7 |
| 20260502101449 | 41 | 180 | 0.0 | 0.0 | 0.00 | 0.00 | 0.00 | 92 | 1018.8 |
| 20260502100431 | 41 | 180 | 0.0 | 0.0 | 0.00 | 0.00 | 0.00 | 92 | 1018.7 |
| 20260502091431 | 41 | 180 | 0.0 | 0.0 | 0.00 | 0.00 | 0.00 | 91 | 1018.4 |
| 20260502090931 | 41 | 180 | 0.0 | 0.0 | 0.00 | 0.00 | 0.00 | 90 | 1018.4 |
| 20260502090431 | 41 | 180 | 0.0 | 0.0 | 0.00 | 0.00 | 0.00 | 91 | 1018.4 |
| 20260502071418 | 42 | 180 | 0.0 | 0.0 | 0.00 | 0.00 | 0.00 | 87 | 1018.4 |
| 20260502070917 | 42 | 180 | 0.0 | 0.0 | 0.00 | 0.00 | 0.00 | 87 | 1018.3 |
| 20260502070414 | 42 | 180 | 0.0 | 0.0 | 0.00 | 0.00 | 0.00 | 86 | 1018.3 |
| 20260502065913 | 42 | 180 | 0.0 | 0.0 | 0.00 | 0.00 | 0.00 | 86 | 1018.4 |
| 20260502065416 | 42 | 180 | 0.0 | 0.0 | 0.00 | 0.00 | 0.00 | 86 | 1018.3 |
| 20260502064913 | 43 | 180 | 0.0 | 0.0 | 0.00 | 0.00 | 0.00 | 86 | 1018.3 |
| 20260502064415 | 43 | 180 | 0.0 | 0.0 | 0.00 | 0.00 | 0.00 | 86 | 1018.3 |
| 20260502063413 | 43 | 180 | 0.0 | 0.0 | 0.00 | 0.00 | 0.00 | 86 | 1018.3 |
| 20260502062905 | 43 | 180 | 0.0 | 0.0 | 0.00 | 0.00 | 0.00 | 86 | 1018.3 |
| 20260502062404 | 43 | 180 | 0.0 | 0.0 | 0.00 | 0.00 | 0.00 | 86 | 1018.3 |
| 20260502061903 | 43 | 180 | 0.0 | 0.0 | 0.00 | 0.00 | 0.00 | 86 | 1018.3 |
| 20260502061403 | 44 | 180 | 0.0 | 0.0 | 0.00 | 0.00 | 0.00 | 86 | 1018.2 |
| 20260502060903 | 44 | 180 | 0.0 | 0.0 | 0.00 | 0.00 | 0.00 | 85 | 1018.3 |
| 20260502060403 | 44 | 180 | 0.0 | 0.0 | 0.00 | 0.00 | 0.00 | 86 | 1018.3 |
| 20260502055904 | 44 | 180 | 0.0 | 0.0 | 0.00 | 0.00 | 0.00 | 86 | 1018.3 |
| 20260502055404 | 44 | 180 | 0.0 | 0.0 | 0.00 | 0.00 | 0.00 | 85 | 1018.3 |
| 20260502054903 | 44 | 180 | 0.0 | 0.0 | 0.00 | 0.00 | 0.00 | 85 | 1018.4 |
| 20260502054403 | 44 | 180 | 0.0 | 0.0 | 0.00 | 0.00 | 0.00 | 86 | 1018.3 |
| 20260502053405 | 45 | 177 | 0.0 | 0.0 | 0.00 | 0.00 | 0.00 | 86 | 1018.4 |
| 20260502052903 | 45 | 176 | 0.0 | 0.0 | 0.00 | 0.00 | 0.00 | 85 | 1018.4 |
| 20260502052403 | 45 | 175 | 0.0 | 0.0 | 0.00 | 0.00 | 0.00 | 84 | 1018.3 |
| 20260502051902 | 45 | 174 | 0.0 | 0.0 | 0.00 | 0.00 | 0.00 | 83 | 1018.3 |
| 20260502051403 | 45 | 178 | 0.0 | 0.0 | 0.00 | 0.00 | 0.00 | 81 | 1018.4 |
| 20260502050902 | 46 | 180 | 0.0 | 0.0 | 0.00 | 0.00 | 0.00 | 81 | 1018.4 |
| 20260502050403 | 46 | 180 | 0.0 | 0.0 | 0.00 | 0.00 | 0.00 | 81 | 1018.5 |
| 20260502045903 | 46 | 180 | 0.0 | 0.0 | 0.00 | 0.00 | 0.00 | 81 | 1018.5 |
| 20260502045354 | 46 | 180 | 0.0 | 0.0 | 0.00 | 0.00 | 0.00 | 80 | 1018.5 |
| 20260502044848 | 46 | 180 | 0.0 | 0.0 | 0.00 | 0.00 | 0.00 | 80 | 1018.5 |
| 20260502043344 | 47 | 180 | 0.0 | 0.0 | 0.00 | 0.00 | 0.00 | 79 | 1018.4 |
| 20260502042842 | 47 | 180 | 0.0 | 0.0 | 0.00 | 0.00 | 0.00 | 78 | 1018.4 |
| 20260502042342 | 47 | 180 | 0.0 | 0.0 | 0.00 | 0.00 | 0.00 | 78 | 1018.4 |
| 20260502041843 | 47 | 180 | 0.0 | 0.0 | 0.00 | 0.00 | 0.00 | 78 | 1018.3 |
| 20260502040841 | 48 | 180 | 0.0 | 0.0 | 0.00 | 0.00 | 0.00 | 75 | 1018.4 |
| 20260502035334 | 49 | 180 | 0.0 | 0.0 | 0.00 | 0.00 | 0.00 | 72 | 1018.5 |
| 20260502034834 | 49 | 180 | 0.0 | 0.0 | 0.00 | 0.00 | 0.00 | 72 | 1018.5 |
| 20260502033832 | 49 | 180 | 0.0 | 0.0 | 0.00 | 0.00 | 0.00 | 71 | 1018.5 |
| 20260502033331 | 49 | 180 | 0.0 | 0.0 | 0.00 | 0.00 | 0.00 | 71 | 1018.5 |
| 20260502032331 | 50 | 178 | 0.0 | 0.0 | 0.00 | 0.00 | 0.00 | 67 | 1018.6 |
| 20260502031831 | 50 | 171 | 0.0 | 0.0 | 0.00 | 0.00 | 0.00 | 67 | 1018.6 |
| 20260502031325 | 50 | 171 | 0.0 | 0.0 | 0.00 | 0.00 | 0.00 | 69 | 1018.4 |
| 20260502030817 | 50 | 171 | 0.0 | 0.0 | 0.00 | 0.00 | 0.00 | 72 | 1018.4 |
| 20260502030312 | 51 | 172 | 0.0 | 0.0 | 0.00 | 0.00 | 0.00 | 70 | 1018.5 |
| 20260502025806 | 51 | 172 | 0.0 | 1.0 | 0.00 | 0.00 | 0.00 | 68 | 1018.5 |
| 20260502025306 | 51 | 172 | 0.0 | 1.0 | 0.00 | 0.00 | 0.00 | 69 | 1018.5 |
| 20260502024803 | 51 | 173 | 0.0 | 1.0 | 0.00 | 0.00 | 0.00 | 69 | 1018.5 |
| 20260502024303 | 51 | 173 | 0.0 | 1.0 | 0.00 | 0.00 | 0.00 | 69 | 1018.4 |
| 20260502023303 | 52 | 173 | 0.0 | 0.0 | 0.00 | 0.00 | 0.00 | 65 | 1018.3 |
| 20260502022802 | 53 | 173 | 0.0 | 0.0 | 0.00 | 0.00 | 0.00 | 65 | 1018.3 |
| 20260502022306 | 53 | 173 | 0.0 | 0.0 | 0.00 | 0.00 | 0.00 | 67 | 1018.3 |
| 20260502021801 | 53 | 173 | 0.0 | 0.0 | 0.00 | 0.00 | 0.00 | 67 | 1018.2 |
| 20260502020801 | 54 | 174 | 0.0 | 0.0 | 0.00 | 0.00 | 0.00 | 67 | 1018.2 |
| 20260502020301 | 54 | 174 | 0.0 | 0.0 | 0.00 | 0.00 | 0.00 | 67 | 1018.1 |
| 20260502015801 | 54 | 175 | 0.0 | 0.0 | 0.00 | 0.00 | 0.00 | 66 | 1018.1 |
| 20260502015305 | 55 | 180 | 0.0 | 0.0 | 0.00 | 0.00 | 0.00 | 63 | 1018.0 |
| 20260502014801 | 55 | 180 | 0.0 | 0.0 | 0.00 | 0.00 | 0.00 | 62 | 1018.0 |
| 20260502014302 | 55 | 180 | 0.0 | 0.0 | 0.00 | 0.00 | 0.00 | 62 | 1018.1 |
| 20260502013302 | 56 | 180 | 0.0 | 0.0 | 0.00 | 0.00 | 0.00 | 60 | 1018.0 |
| 20260502012306 | 57 | 180 | 0.0 | 0.0 | 0.00 | 0.00 | 0.00 | 58 | 1017.8 |
| 20260502010302 | 58 | 180 | 0.0 | 0.0 | 0.00 | 0.00 | 0.00 | 48 | 1017.6 |
| 20260502005801 | 59 | 180 | 0.0 | 0.0 | 0.00 | 0.00 | 0.00 | 50 | 1017.5 |
| 20260502005305 | 59 | 177 | 0.0 | 0.0 | 0.00 | 0.00 | 0.00 | 47 | 1017.4 |
| 20260502004301 | 60 | 180 | 0.0 | 1.0 | 0.00 | 0.00 | 0.00 | 47 | 1017.3 |
| 20260502003301 | 60 | 11 | 0.0 | 1.0 | 0.00 | 0.00 | 0.00 | 47 | 1017.1 |
| 20260502002801 | 60 | 11 | 0.0 | 3.0 | 0.00 | 0.00 | 0.00 | 49 | 1017.1 |
| 20260502002305 | 60 | 9 | 0.0 | 3.0 | 0.00 | 0.00 | 0.00 | 45 | 1017.0 |
| 20260502001803 | 61 | 25 | 1.0 | 4.0 | 0.00 | 0.00 | 0.00 | 44 | 1016.8 |
| 20260502001303 | 61 | 148 | 1.0 | 4.0 | 0.00 | 0.00 | 0.00 | 43 | 1016.7 |
| 20260502000803 | 61 | 172 | 0.0 | 3.0 | 0.00 | 0.00 | 0.00 | 41 | 1016.6 |
| 20260502000302 | 61 | 5 | 0.0 | 2.0 | 0.00 | 0.00 | 0.00 | 42 | 1016.5 |
| 20260501235801 | 61 | 94 | 1.0 | 3.0 | 0.00 | 0.00 | 0.00 | 43 | 1016.5 |
| 20260501235305 | 61 | 42 | 1.0 | 3.0 | 0.00 | 0.00 | 0.00 | 42 | 1016.5 |
| 20260501234801 | 61 | 9 | 1.0 | 2.0 | 0.00 | 0.00 | 0.00 | 42 | 1016.5 |
| 20260501233801 | 62 | 173 | 1.0 | 3.0 | 0.00 | 0.00 | 0.00 | 41 | 1016.6 |
| 20260501233302 | 62 | 183 | 1.0 | 5.0 | 0.00 | 0.00 | 0.00 | 40 | 1016.7 |
| 20260501232305 | 62 | 5 | 2.0 | 5.0 | 0.00 | 0.00 | 0.00 | 38 | 1016.7 |
| 20260501231801 | 62 | 69 | 1.0 | 4.0 | 0.00 | 0.00 | 0.00 | 40 | 1016.8 |
| 20260501231303 | 62 | 182 | 2.0 | 8.0 | 0.00 | 0.00 | 0.00 | 40 | 1016.7 |
| 20260501230801 | 63 | 111 | 2.0 | 8.0 | 0.00 | 0.00 | 0.00 | 37 | 1016.7 |
| 20260501230302 | 63 | 11 | 1.0 | 7.0 | 0.00 | 0.00 | 0.00 | 36 | 1016.7 |
| 20260501225801 | 63 | 29 | 1.0 | 5.0 | 0.00 | 0.00 | 0.00 | 36 | 1016.6 |
| 20260501225305 | 64 | 12 | 2.0 | 5.0 | 0.00 | 0.00 | 0.00 | 36 | 1016.7 |
| 20260501224801 | 64 | 183 | 1.0 | 6.0 | 0.00 | 0.00 | 0.00 | 37 | 1016.6 |
| 20260501223801 | 65 | 76 | 2.0 | 5.0 | 0.00 | 0.00 | 0.00 | 36 | 1016.6 |
| 20260501223302 | 65 | 51 | 2.0 | 5.0 | 0.00 | 0.00 | 0.00 | 37 | 1016.6 |
| 20260501222801 | 65 | 192 | 2.0 | 5.0 | 0.00 | 0.00 | 0.00 | 36 | 1016.3 |
| 20260501222305 | 66 | 96 | 2.0 | 4.0 | 0.00 | 0.00 | 0.00 | 34 | 1016.3 |
| 20260501221801 | 66 | 36 | 1.0 | 5.0 | 0.00 | 0.00 | 0.00 | 36 | 1016.2 |
| 20260501221301 | 66 | 62 | 2.0 | 8.0 | 0.00 | 0.00 | 0.00 | 33 | 1016.2 |
| 20260501220800 | 67 | 80 | 2.0 | 8.0 | 0.00 | 0.00 | 0.00 | 34 | 1016.1 |
| 20260501220302 | 67 | 227 | 2.0 | 6.0 | 0.00 | 0.00 | 0.00 | 33 | 1016.1 |
| 20260501215802 | 67 | 19 | 2.0 | 6.0 | 0.00 | 0.00 | 0.00 | 31 | 1016.0 |
| 20260501215305 | 67 | 62 | 2.0 | 6.0 | 0.00 | 0.00 | 0.00 | 32 | 1015.9 |
| 20260501214301 | 67 | 35 | 2.0 | 8.0 | 0.00 | 0.00 | 0.00 | 33 | 1015.8 |
| 20260501213301 | 67 | 0 | 2.0 | 8.0 | 0.00 | 0.00 | 0.00 | 34 | 1015.7 |
| 20260501212801 | 67 | 196 | 2.0 | 8.0 | 0.00 | 0.00 | 0.00 | 34 | 1015.9 |
| 20260501212301 | 68 | 9 | 2.0 | 8.0 | 0.00 | 0.00 | 0.00 | 34 | 1015.9 |
| 20260501211801 | 68 | 213 | 3.0 | 8.0 | 0.00 | 0.00 | 0.00 | 33 | 1015.9 |
| 20260501211301 | 68 | 142 | 2.0 | 7.0 | 0.00 | 0.00 | 0.00 | 34 | 1015.8 |
| 20260501210801 | 69 | 214 | 2.0 | 11.0 | 0.00 | 0.00 | 0.00 | 33 | 1015.9 |